Location: *
(48.8489°N, 2.3218°E)
Time: 22:46:52
(UTC+00:00)

Cosmos 2082 Rocket - Pass Details

Date: 23 August 2019
Orbit: 832 x 855 km, 71.0° (Epoch: 17 September)

Event Time Altitude Azimuth Distance (km) Brightness Sun altitude
Exits shadow 21:42:26 16° 215° (SW) 2,049 4.0 -23.3°
Maximum altitude 21:46:59 75° 300° (WNW) 874 2.3 -23.7°
Drops below altitude 10° 21:52:41 10° 26° (NNE) 2,479 5.0 -24.2°
Sets 21:55:10 0° 28° (NNE) 3,422 5.8 -24.4°
